RUK3XH EGSS-LTBS

Flight info

Callsign RUK3XH
Flight time 3h 44m
Altitude 37000
Route CLN M84 KONAN UL607 KOK DCT RITAX DCT BANUX DCT BABEG DCT KUMOM DCT GORPA DCT KUSIB DCT VABEK UL603 OLOTA DCT RUGAS DCT PEREN DCT RIKSO UP14 ODNOD UT491 SONUP
Aircraft B38M/M-SADE3FGILRWY/SB1

Departure

Time 2026-05-08 10:37
Airport London Stansted Airport (EGSS)

Arrival

Time 2026-05-08 14:21
Airport Dalaman International Airport (LTBS)
Time Latitude Longitude Altitude Speed Heading
2026-05-08 10:00 51.89552 0.26365 361 ft 0 kts 222°
2026-05-08 10:26 51.89562 0.26379 364 ft 4 kts 222°
2026-05-08 10:26 51.89577 0.26402 364 ft 4 kts 231°
2026-05-08 10:27 51.89581 0.26430 361 ft 4 kts 306°
2026-05-08 10:27 51.89564 0.26460 362 ft 2 kts 313°
2026-05-08 10:27 51.89563 0.26463 361 ft 0 kts 313°
2026-05-08 10:30 51.89563 0.26462 361 ft 0 kts 313°
2026-05-08 10:30 51.89570 0.26449 363 ft 3 kts 313°
2026-05-08 10:30 51.89596 0.26405 361 ft 11 kts 312°
2026-05-08 10:31 51.89670 0.26274 355 ft 18 kts 313°
2026-05-08 10:31 51.89734 0.26126 362 ft 15 kts 265°
2026-05-08 10:31 51.89660 0.26006 359 ft 16 kts 223°
2026-05-08 10:31 51.89573 0.25876 355 ft 19 kts 222°
2026-05-08 10:32 51.89452 0.25699 359 ft 28 kts 225°
2026-05-08 10:32 51.89300 0.25470 358 ft 30 kts 221°
2026-05-08 10:32 51.89149 0.25241 357 ft 30 kts 223°
2026-05-08 10:32 51.88993 0.25010 355 ft 31 kts 223°
2026-05-08 10:33 51.88847 0.24788 362 ft 29 kts 223°
2026-05-08 10:33 51.88698 0.24566 350 ft 29 kts 223°
2026-05-08 10:33 51.88545 0.24336 351 ft 31 kts 223°
2026-05-08 10:33 51.88394 0.24106 347 ft 30 kts 221°
2026-05-08 10:34 51.88243 0.23880 347 ft 30 kts 223°
2026-05-08 10:34 51.88084 0.23641 348 ft 27 kts 222°
2026-05-08 10:34 51.87944 0.23432 347 ft 28 kts 222°
2026-05-08 10:34 51.87800 0.23218 346 ft 26 kts 222°
2026-05-08 10:35 51.87745 0.23005 349 ft 23 kts 309°
2026-05-08 10:35 51.87857 0.22806 336 ft 26 kts 316°
2026-05-08 10:35 51.87949 0.22682 336 ft 12 kts 351°
2026-05-08 10:35 51.88019 0.22755 335 ft 11 kts 43°
2026-05-08 10:36 51.88091 0.22864 336 ft 21 kts 42°
2026-05-08 10:36 51.88327 0.23217 337 ft 84 kts 42°
2026-05-08 10:36 51.88943 0.24136 358 ft 153 kts 43°
2026-05-08 10:36 51.89788 0.25430 815 ft 172 kts 46°
2026-05-08 10:37 51.90527 0.27049 1421 ft 192 kts 58°
2026-05-08 10:37 51.91094 0.29020 2254 ft 191 kts 76°
2026-05-08 10:37 51.91176 0.31190 2795 ft 205 kts 97°
2026-05-08 10:37 51.90776 0.33521 3062 ft 224 kts 110°
2026-05-08 10:38 51.90517 0.34606 3099 ft 228 kts 111°
2026-05-08 10:38 51.90425 0.34983 3110 ft 229 kts 111°
2026-05-08 10:38 51.89804 0.37405 3177 ft 235 kts 113°
2026-05-08 10:38 51.89148 0.39840 3131 ft 235 kts 114°
2026-05-08 10:39 51.88445 0.42349 3540 ft 253 kts 114°
2026-05-08 10:39 51.87705 0.44943 4346 ft 258 kts 115°
2026-05-08 10:39 51.86943 0.47585 5251 ft 261 kts 115°
2026-05-08 10:39 51.86160 0.50277 5875 ft 266 kts 115°
2026-05-08 10:40 51.85365 0.52997 5989 ft 268 kts 115°
2026-05-08 10:40 51.84561 0.55739 6451 ft 270 kts 115°
2026-05-08 10:40 51.83756 0.58479 7401 ft 270 kts 115°
2026-05-08 10:40 51.83115 0.61291 8204 ft 272 kts 98°
2026-05-08 10:41 51.83076 0.64359 9018 ft 275 kts 88°
2026-05-08 10:41 51.83151 0.67480 9790 ft 279 kts 87°
2026-05-08 10:41 51.83248 0.70651 10457 ft 289 kts 87°
2026-05-08 10:41 51.83359 0.74007 10826 ft 308 kts 86°
2026-05-08 10:42 51.83485 0.77546 11344 ft 319 kts 86°
2026-05-08 10:42 51.83617 0.81148 12114 ft 321 kts 86°
2026-05-08 10:42 51.83751 0.84743 12832 ft 325 kts 86°
2026-05-08 10:42 51.83889 0.88417 13561 ft 329 kts 86°
2026-05-08 10:43 51.84027 0.92137 14274 ft 332 kts 86°
2026-05-08 10:43 51.84166 0.95889 14972 ft 336 kts 86°
2026-05-08 10:43 51.84304 0.99628 15655 ft 339 kts 86°
2026-05-08 10:43 51.84443 1.03458 16310 ft 342 kts 86°
2026-05-08 10:44 51.84583 1.07317 16942 ft 346 kts 86°
2026-05-08 10:44 51.84445 1.11200 17544 ft 348 kts 104°
2026-05-08 10:44 51.83477 1.14782 18137 ft 351 kts 124°
2026-05-08 10:44 51.81792 1.17660 18693 ft 354 kts 142°
2026-05-08 10:45 51.79776 1.19976 19234 ft 358 kts 145°
2026-05-08 10:45 51.77715 1.22261 19770 ft 361 kts 146°
2026-05-08 10:45 51.75639 1.24564 20303 ft 363 kts 142°
2026-05-08 10:45 51.73657 1.27039 20791 ft 366 kts 142°
2026-05-08 10:46 51.71626 1.29551 21304 ft 369 kts 142°
2026-05-08 10:46 51.69578 1.32066 21806 ft 372 kts 142°
2026-05-08 10:46 51.67508 1.34596 22295 ft 374 kts 143°
2026-05-08 10:46 51.65424 1.37139 22778 ft 377 kts 143°
2026-05-08 10:47 51.63322 1.39700 23241 ft 380 kts 143°
2026-05-08 10:47 51.61208 1.42272 23722 ft 383 kts 143°
2026-05-08 10:47 51.59070 1.44869 24182 ft 385 kts 143°
2026-05-08 10:47 51.56922 1.47476 24632 ft 388 kts 143°
2026-05-08 10:48 51.54762 1.50094 25073 ft 391 kts 143°
2026-05-08 10:48 51.52582 1.52732 25504 ft 393 kts 143°
2026-05-08 10:48 51.50388 1.55385 25924 ft 396 kts 143°
2026-05-08 10:48 51.48183 1.58047 26322 ft 398 kts 143°
2026-05-08 10:49 51.45960 1.60728 26721 ft 401 kts 143°
2026-05-08 10:49 51.43750 1.63391 27092 ft 403 kts 143°
2026-05-08 10:49 51.41499 1.66099 27484 ft 405 kts 143°
2026-05-08 10:49 51.39237 1.68818 28346 ft 410 kts 144°
2026-05-08 10:50 51.36926 1.71590 28460 ft 418 kts 144°
2026-05-08 10:50 51.34591 1.74388 28898 ft 419 kts 144°
2026-05-08 10:50 51.32253 1.77185 29241 ft 422 kts 144°
2026-05-08 10:50 51.29895 1.80005 29614 ft 424 kts 144°
2026-05-08 10:51 51.27527 1.82831 29980 ft 426 kts 144°
2026-05-08 10:51 51.25176 1.85634 30297 ft 428 kts 144°
2026-05-08 10:51 51.22783 1.88484 30569 ft 430 kts 144°
2026-05-08 10:51 51.20369 1.91353 30814 ft 433 kts 144°
2026-05-08 10:52 51.17939 1.94237 31130 ft 434 kts 144°
2026-05-08 10:52 51.15635 1.97403 31369 ft 439 kts 132°
2026-05-08 10:52 51.13953 2.01398 31657 ft 443 kts 116°
2026-05-08 10:52 51.12992 2.06079 31858 ft 449 kts 100°
2026-05-08 10:53 51.12607 2.11027 32124 ft 451 kts 97°
2026-05-08 10:53 51.12277 2.16024 32340 ft 454 kts 96°
2026-05-08 10:53 51.11973 2.21056 32604 ft 456 kts 96°
2026-05-08 10:53 51.11683 2.26114 32842 ft 459 kts 96°
2026-05-08 10:54 51.11403 2.31122 33083 ft 461 kts 95°
2026-05-08 10:54 51.11119 2.36238 33323 ft 464 kts 95°
2026-05-08 10:54 51.10834 2.41357 33602 ft 464 kts 96°
2026-05-08 10:54 51.10545 2.46478 33942 ft 464 kts 96°
2026-05-08 10:55 51.10253 2.51607 34227 ft 465 kts 96°
2026-05-08 10:55 51.09964 2.56669 34480 ft 465 kts 96°
2026-05-08 10:55 51.09659 2.61803 34732 ft 465 kts 98°
2026-05-08 10:55 51.08856 2.66757 34984 ft 461 kts 115°
2026-05-08 10:56 51.07506 2.71379 35224 ft 462 kts 116°
2026-05-08 10:56 51.06146 2.76031 35418 ft 463 kts 116°
2026-05-08 10:56 51.04767 2.80657 35668 ft 464 kts 117°
2026-05-08 10:56 51.03369 2.85278 35911 ft 464 kts 117°
2026-05-08 10:57 51.02439 2.88336 36081 ft 464 kts 117°
2026-05-08 10:57 51.01032 2.92945 36322 ft 464 kts 117°
2026-05-08 10:57 50.98209 3.02169 36764 ft 465 kts 117°
2026-05-08 10:58 50.96793 3.06779 36976 ft 465 kts 117°
2026-05-08 10:58 50.95372 3.11400 37104 ft 466 kts 117°
2026-05-08 10:58 50.92521 3.20642 37094 ft 465 kts 117°
2026-05-08 10:59 50.89669 3.29851 37086 ft 465 kts 118°
2026-05-08 10:59 50.86829 3.38987 37089 ft 465 kts 118°
2026-05-08 11:00 50.83958 3.48193 37090 ft 465 kts 118°
2026-05-08 11:00 50.81085 3.57367 37091 ft 465 kts 118°
2026-05-08 11:01 50.78220 3.66481 37095 ft 465 kts 118°
2026-05-08 11:01 50.75330 3.75642 37086 ft 465 kts 118°
2026-05-08 11:02 50.70984 3.89353 37085 ft 465 kts 118°
2026-05-08 11:03 50.68078 3.98480 37089 ft 465 kts 118°
2026-05-08 11:03 50.65186 4.07530 37087 ft 465 kts 118°
2026-05-08 11:04 50.62261 4.16648 37083 ft 465 kts 118°
2026-05-08 11:04 50.59348 4.25696 37096 ft 465 kts 118°
2026-05-08 11:05 50.56414 4.34777 37089 ft 465 kts 119°
2026-05-08 11:05 50.53468 4.43862 37104 ft 466 kts 119°
2026-05-08 11:06 50.50515 4.52935 37106 ft 465 kts 119°
2026-05-08 11:06 50.47574 4.61938 37102 ft 465 kts 119°
2026-05-08 11:07 50.44606 4.70991 37086 ft 465 kts 119°
2026-05-08 11:07 50.41654 4.79963 37089 ft 465 kts 119°
2026-05-08 11:08 50.38678 4.88977 37090 ft 465 kts 119°
2026-05-08 11:08 50.35712 4.97925 37088 ft 464 kts 120°
2026-05-08 11:09 50.32721 5.06919 37091 ft 465 kts 120°
2026-05-08 11:09 50.29742 5.15844 37080 ft 464 kts 120°
2026-05-08 11:10 50.26742 5.24801 37088 ft 464 kts 120°
2026-05-08 11:10 50.23733 5.33751 37087 ft 464 kts 120°
2026-05-08 11:11 50.20740 5.42623 37093 ft 464 kts 120°
2026-05-08 11:11 50.17717 5.51557 37087 ft 464 kts 120°
2026-05-08 11:12 50.14691 5.60471 37087 ft 464 kts 120°
2026-05-08 11:12 50.11677 5.69325 37089 ft 464 kts 120°
2026-05-08 11:13 50.08638 5.78220 37086 ft 463 kts 120°
2026-05-08 11:13 50.05756 5.87160 37092 ft 464 kts 118°
2026-05-08 11:14 50.02861 5.96163 37078 ft 464 kts 119°
2026-05-08 11:14 49.99977 6.05094 37095 ft 464 kts 119°
2026-05-08 11:15 49.97067 6.14075 37084 ft 464 kts 119°
2026-05-08 11:15 49.94150 6.23043 37095 ft 464 kts 119°
2026-05-08 11:16 49.91246 6.31938 37098 ft 464 kts 119°
2026-05-08 11:16 49.88312 6.40896 37094 ft 464 kts 119°
2026-05-08 11:17 49.85397 6.49763 37096 ft 464 kts 119°
2026-05-08 11:17 49.82449 6.58698 37085 ft 464 kts 119°
2026-05-08 11:18 49.79517 6.67556 37084 ft 464 kts 119°
2026-05-08 11:18 49.76562 6.76449 37086 ft 464 kts 119°
2026-05-08 11:19 49.73600 6.85333 37088 ft 464 kts 119°
2026-05-08 11:19 49.70644 6.94168 37085 ft 464 kts 120°
2026-05-08 11:20 49.67662 7.03049 37088 ft 464 kts 120°
2026-05-08 11:20 49.64701 7.11837 37095 ft 464 kts 120°
2026-05-08 11:21 49.61710 7.20686 37078 ft 464 kts 120°
2026-05-08 11:21 49.58716 7.29508 37090 ft 464 kts 120°
2026-05-08 11:22 49.55711 7.38335 37094 ft 464 kts 120°
2026-05-08 11:22 49.52722 7.47085 37094 ft 464 kts 120°
2026-05-08 11:23 49.49701 7.55897 37077 ft 464 kts 120°
2026-05-08 11:23 49.46677 7.64687 37074 ft 464 kts 120°
2026-05-08 11:24 49.43664 7.73418 37082 ft 464 kts 120°
2026-05-08 11:24 49.40642 7.82144 37084 ft 464 kts 120°
2026-05-08 11:25 49.37597 7.90903 37087 ft 464 kts 120°
2026-05-08 11:25 49.34544 7.99660 37089 ft 464 kts 120°
2026-05-08 11:26 49.31492 8.08381 37090 ft 464 kts 120°
2026-05-08 11:26 49.28446 8.17059 37099 ft 464 kts 120°
2026-05-08 11:27 49.25374 8.25777 37091 ft 464 kts 120°
2026-05-08 11:27 49.22322 8.34414 37072 ft 464 kts 120°
2026-05-08 11:28 49.19239 8.43112 37086 ft 463 kts 120°
2026-05-08 11:28 49.16175 8.51730 37086 ft 463 kts 120°
2026-05-08 11:29 49.13087 8.60390 37087 ft 463 kts 121°
2026-05-08 11:29 49.09812 8.68854 37097 ft 460 kts 126°
2026-05-08 11:30 49.06267 8.76966 37074 ft 462 kts 126°
2026-05-08 11:30 49.02730 8.85178 37079 ft 462 kts 125°
2026-05-08 11:31 48.99220 8.93325 37071 ft 462 kts 125°
2026-05-08 11:31 48.95681 9.01513 37076 ft 462 kts 126°
2026-05-08 11:32 48.92137 9.09687 37077 ft 462 kts 126°
2026-05-08 11:32 48.88594 9.17836 37078 ft 462 kts 126°
2026-05-08 11:33 48.85066 9.25927 37079 ft 462 kts 126°
2026-05-08 11:33 48.81510 9.34056 37069 ft 462 kts 126°
2026-05-08 11:34 48.77943 9.42186 37068 ft 462 kts 126°
2026-05-08 11:34 48.74391 9.50257 37072 ft 462 kts 126°
2026-05-08 11:35 48.70810 9.58372 37070 ft 462 kts 126°
2026-05-08 11:35 48.67280 9.66442 37063 ft 463 kts 122°
2026-05-08 11:36 48.64017 9.74907 37076 ft 465 kts 123°
2026-05-08 11:36 48.60710 9.83327 37080 ft 465 kts 123°
2026-05-08 11:37 48.57417 9.91670 37077 ft 464 kts 123°
2026-05-08 11:37 48.54103 10.00038 37072 ft 464 kts 123°
2026-05-08 11:38 48.50776 10.08415 37102 ft 465 kts 124°
2026-05-08 11:38 48.47462 10.16731 37094 ft 465 kts 124°
2026-05-08 11:39 48.44120 10.25091 37094 ft 465 kts 124°
2026-05-08 11:39 48.40770 10.33447 37099 ft 465 kts 124°
2026-05-08 11:40 48.37419 10.41775 37095 ft 465 kts 124°
2026-05-08 11:40 48.34079 10.50054 37092 ft 465 kts 124°
2026-05-08 11:41 48.30715 10.58366 37090 ft 465 kts 124°
2026-05-08 11:41 48.27361 10.66627 37082 ft 465 kts 124°
2026-05-08 11:42 48.23983 10.74923 37076 ft 465 kts 124°
2026-05-08 11:42 48.20604 10.83194 37077 ft 465 kts 125°
2026-05-08 11:43 48.17782 10.90082 37073 ft 465 kts 125°
2026-05-08 11:43 48.14383 10.98356 37075 ft 465 kts 125°
2026-05-08 11:44 48.10985 11.06603 37067 ft 465 kts 125°
2026-05-08 11:44 48.07597 11.14800 37066 ft 466 kts 126°
2026-05-08 11:45 48.03605 11.24427 37077 ft 465 kts 126°
2026-05-08 11:45 48.00757 11.31273 37074 ft 465 kts 126°
2026-05-08 11:46 47.97353 11.39435 37076 ft 465 kts 126°
2026-05-08 11:46 47.93920 11.47640 37072 ft 465 kts 126°
2026-05-08 11:47 47.90485 11.55825 37082 ft 466 kts 126°
2026-05-08 11:47 47.87040 11.64009 37054 ft 466 kts 126°
2026-05-08 11:48 47.83610 11.72138 37052 ft 466 kts 126°
2026-05-08 11:48 47.80152 11.80301 37065 ft 465 kts 127°
2026-05-08 11:49 47.76730 11.88363 37049 ft 465 kts 127°
2026-05-08 11:49 47.73282 11.96451 37068 ft 466 kts 127°
2026-05-08 11:50 47.69811 12.04577 37073 ft 465 kts 127°
2026-05-08 11:50 47.66334 12.12692 37068 ft 465 kts 127°
2026-05-08 11:51 47.62869 12.20759 37056 ft 465 kts 127°
2026-05-08 11:51 47.59382 12.28858 37066 ft 465 kts 127°
2026-05-08 11:52 47.55869 12.36907 37052 ft 462 kts 132°
2026-05-08 11:52 47.51784 12.44203 37069 ft 461 kts 135°
2026-05-08 11:53 47.47697 12.51406 37056 ft 459 kts 135°
2026-05-08 11:53 47.43575 12.58637 37044 ft 460 kts 135°
2026-05-08 11:54 47.39464 12.65828 37052 ft 460 kts 135°
2026-05-08 11:54 47.35330 12.73044 37066 ft 460 kts 135°
2026-05-08 11:55 47.31193 12.80241 37037 ft 459 kts 135°
2026-05-08 11:55 47.27074 12.87389 37044 ft 459 kts 135°
2026-05-08 11:56 47.22935 12.94554 37051 ft 458 kts 135°
2026-05-08 11:56 47.18799 13.01694 37051 ft 457 kts 135°
2026-05-08 11:57 47.14716 13.08727 37027 ft 456 kts 135°
2026-05-08 11:57 47.10609 13.15777 37046 ft 456 kts 135°
2026-05-08 11:58 47.06466 13.22873 37034 ft 456 kts 135°
2026-05-08 11:58 47.02349 13.29908 37033 ft 457 kts 136°
2026-05-08 11:59 46.96115 13.40522 37047 ft 457 kts 136°
2026-05-08 11:59 46.91989 13.47529 37066 ft 457 kts 136°
2026-05-08 12:00 46.87828 13.54572 37054 ft 456 kts 136°
2026-05-08 12:00 46.83675 13.61587 37057 ft 455 kts 136°
2026-05-08 12:01 46.79511 13.68600 37060 ft 456 kts 136°
2026-05-08 12:01 46.75376 13.75549 37047 ft 454 kts 136°
2026-05-08 12:02 46.71243 13.82473 37077 ft 455 kts 136°
2026-05-08 12:02 46.67081 13.89429 37068 ft 455 kts 136°
2026-05-08 12:03 46.62910 13.96383 37084 ft 455 kts 136°
2026-05-08 12:03 46.58748 14.03304 37078 ft 455 kts 136°
2026-05-08 12:04 46.54568 14.10239 37073 ft 455 kts 136°
2026-05-08 12:04 46.50387 14.17156 37071 ft 455 kts 136°
2026-05-08 12:05 46.46223 14.24027 37062 ft 456 kts 136°
2026-05-08 12:05 46.42019 14.30948 37088 ft 457 kts 136°
2026-05-08 12:06 46.37815 14.37851 37071 ft 456 kts 137°
2026-05-08 12:06 46.33631 14.44706 37055 ft 457 kts 137°
2026-05-08 12:07 46.29410 14.51602 37096 ft 458 kts 137°
2026-05-08 12:07 46.25190 14.58478 37074 ft 456 kts 137°
2026-05-08 12:08 46.20999 14.65292 37073 ft 455 kts 137°
2026-05-08 12:08 46.16791 14.72114 37072 ft 454 kts 137°
2026-05-08 12:09 46.12575 14.78934 37068 ft 454 kts 137°
2026-05-08 12:09 46.08384 14.85697 37060 ft 454 kts 137°
2026-05-08 12:10 46.04159 14.92496 37066 ft 455 kts 137°
2026-05-08 12:10 45.99934 14.99281 37068 ft 455 kts 137°
2026-05-08 12:11 45.95727 15.06020 37061 ft 454 kts 137°
2026-05-08 12:11 45.91497 15.12780 37064 ft 453 kts 137°
2026-05-08 12:12 45.87293 15.19485 37065 ft 454 kts 137°
2026-05-08 12:12 45.83058 15.26222 37075 ft 454 kts 137°
2026-05-08 12:13 45.78819 15.32949 37068 ft 454 kts 137°
2026-05-08 12:13 45.74840 15.40040 37119 ft 457 kts 133°
2026-05-08 12:14 45.70912 15.47218 37065 ft 456 kts 133°
2026-05-08 12:14 45.66985 15.54331 37064 ft 457 kts 133°
2026-05-08 12:15 45.63039 15.61461 37063 ft 457 kts 133°
2026-05-08 12:15 45.59085 15.68584 37064 ft 457 kts 133°
2026-05-08 12:16 45.55153 15.75651 37065 ft 457 kts 133°
2026-05-08 12:16 45.51198 15.82742 37060 ft 457 kts 133°
2026-05-08 12:17 45.47227 15.89842 37063 ft 457 kts 134°
2026-05-08 12:17 45.43257 15.96926 37058 ft 457 kts 133°
2026-05-08 12:18 45.39314 16.03940 37062 ft 456 kts 134°
2026-05-08 12:18 45.35345 16.10985 37060 ft 456 kts 133°
2026-05-08 12:19 45.31367 16.18028 37063 ft 456 kts 133°
2026-05-08 12:19 45.27417 16.25003 37059 ft 456 kts 133°
2026-05-08 12:20 45.23438 16.32014 37067 ft 456 kts 134°
2026-05-08 12:20 45.19453 16.39019 37051 ft 455 kts 134°
2026-05-08 12:21 45.15469 16.46013 37060 ft 455 kts 132°
2026-05-08 12:21 45.11908 16.53478 37068 ft 458 kts 128°
2026-05-08 12:22 45.08349 16.60900 37060 ft 457 kts 129°
2026-05-08 12:22 45.04751 16.68337 37064 ft 457 kts 129°
2026-05-08 12:23 45.01148 16.75761 37063 ft 457 kts 129°
2026-05-08 12:23 44.97561 16.83134 37061 ft 457 kts 129°
2026-05-08 12:24 44.93966 16.90502 37056 ft 457 kts 129°
2026-05-08 12:24 44.90343 16.97911 37051 ft 457 kts 129°
2026-05-08 12:25 44.86740 17.05258 37047 ft 456 kts 129°
2026-05-08 12:25 44.83126 17.12610 37045 ft 455 kts 129°
2026-05-08 12:26 44.79501 17.19965 37051 ft 456 kts 129°
2026-05-08 12:26 44.75907 17.27239 37055 ft 455 kts 129°
2026-05-08 12:27 44.72277 17.34567 37047 ft 455 kts 129°
2026-05-08 12:27 44.68647 17.41875 37049 ft 455 kts 129°
2026-05-08 12:28 44.65015 17.49169 37055 ft 455 kts 129°
2026-05-08 12:28 44.61403 17.56407 37056 ft 455 kts 129°
2026-05-08 12:29 44.57765 17.63677 37048 ft 454 kts 129°
2026-05-08 12:29 44.54140 17.70902 37055 ft 452 kts 129°
2026-05-08 12:30 44.51127 17.76894 37057 ft 452 kts 129°
2026-05-08 12:30 44.47492 17.84106 37059 ft 452 kts 129°
2026-05-08 12:31 44.43857 17.91302 37036 ft 452 kts 129°
2026-05-08 12:31 44.40221 17.98480 37057 ft 451 kts 129°
2026-05-08 12:32 44.36586 18.05640 37043 ft 451 kts 129°
2026-05-08 12:32 44.32949 18.12786 37050 ft 452 kts 129°
2026-05-08 12:33 44.29305 18.19927 37037 ft 451 kts 129°
2026-05-08 12:33 44.25659 18.27056 37044 ft 451 kts 129°
2026-05-08 12:34 44.22031 18.34131 37052 ft 451 kts 129°
2026-05-08 12:34 44.18368 18.41256 37042 ft 451 kts 129°
2026-05-08 12:35 44.14708 18.48361 37049 ft 452 kts 130°
2026-05-08 12:35 44.11043 18.55455 37048 ft 451 kts 130°
2026-05-08 12:36 44.07377 18.62535 37041 ft 451 kts 130°
2026-05-08 12:36 44.03703 18.69613 37044 ft 451 kts 130°
2026-05-08 12:37 44.00025 18.76682 37046 ft 451 kts 129°
2026-05-08 12:37 43.96338 18.83750 37038 ft 452 kts 129°
2026-05-08 12:38 43.92651 18.90803 37033 ft 452 kts 129°
2026-05-08 12:38 43.88973 18.97820 37038 ft 452 kts 130°
2026-05-08 12:39 43.85277 19.04855 37029 ft 451 kts 130°
2026-05-08 12:39 43.81574 19.11887 37002 ft 451 kts 130°
2026-05-08 12:40 43.77871 19.18902 37027 ft 452 kts 130°
2026-05-08 12:40 43.74166 19.25901 37029 ft 451 kts 130°
2026-05-08 12:41 43.70453 19.32902 37027 ft 452 kts 130°
2026-05-08 12:41 43.66744 19.39878 37005 ft 452 kts 130°
2026-05-08 12:42 43.63018 19.46869 36999 ft 452 kts 130°
2026-05-08 12:42 43.59281 19.53863 37023 ft 453 kts 130°
2026-05-08 12:43 43.55535 19.60859 37001 ft 452 kts 130°
2026-05-08 12:43 43.51816 19.67787 37003 ft 454 kts 130°
2026-05-08 12:44 43.48060 19.74768 36997 ft 453 kts 130°
2026-05-08 12:44 43.44293 19.81752 36989 ft 454 kts 130°
2026-05-08 12:45 43.40519 19.88734 36995 ft 454 kts 130°
2026-05-08 12:45 43.36740 19.95710 37007 ft 454 kts 130°
2026-05-08 12:46 43.32986 20.02618 36997 ft 454 kts 130°
2026-05-08 12:46 43.29195 20.09581 36999 ft 454 kts 130°
2026-05-08 12:47 43.25425 20.16489 37012 ft 454 kts 130°
2026-05-08 12:47 43.21634 20.23422 37018 ft 454 kts 130°
2026-05-08 12:48 43.17837 20.30349 37025 ft 454 kts 130°
2026-05-08 12:48 43.14039 20.37266 37023 ft 454 kts 130°
2026-05-08 12:49 43.10233 20.44181 37040 ft 454 kts 130°
2026-05-08 12:49 43.06420 20.51090 37040 ft 455 kts 130°
2026-05-08 12:50 43.02627 20.57951 37043 ft 455 kts 130°
2026-05-08 12:50 42.98764 20.64802 37033 ft 451 kts 140°
2026-05-08 12:51 42.91777 20.73305 37062 ft 451 kts 140°
2026-05-08 12:52 42.87235 20.79199 37055 ft 450 kts 140°
2026-05-08 12:52 42.80439 20.88039 37063 ft 451 kts 140°
2026-05-08 12:53 42.75895 20.93936 37072 ft 451 kts 140°
2026-05-08 12:53 42.71354 20.99816 37064 ft 451 kts 140°
2026-05-08 12:54 42.66805 21.05694 37065 ft 451 kts 140°
2026-05-08 12:54 42.62315 21.11484 37067 ft 451 kts 140°
2026-05-08 12:55 42.57753 21.17354 37071 ft 452 kts 140°
2026-05-08 12:55 42.53209 21.23189 37074 ft 452 kts 140°
2026-05-08 12:56 42.48635 21.29049 37073 ft 452 kts 140°
2026-05-08 12:56 42.44059 21.34899 37059 ft 452 kts 140°
2026-05-08 12:57 42.39476 21.40746 37058 ft 452 kts 140°
2026-05-08 12:57 42.34890 21.46585 37046 ft 453 kts 140°
2026-05-08 12:58 42.30289 21.52431 37043 ft 454 kts 140°
2026-05-08 12:58 42.25703 21.58249 37041 ft 454 kts 140°
2026-05-08 12:59 42.21158 21.64185 37045 ft 455 kts 139°
2026-05-08 12:59 42.16653 21.70182 37029 ft 455 kts 139°
2026-05-08 13:00 42.12145 21.76159 37047 ft 454 kts 139°
2026-05-08 13:00 42.07625 21.82136 37035 ft 455 kts 139°
2026-05-08 13:01 42.03084 21.88131 37042 ft 456 kts 139°
2026-05-08 13:01 41.98580 21.94065 37049 ft 456 kts 139°
2026-05-08 13:02 41.94040 22.00031 37037 ft 456 kts 139°
2026-05-08 13:02 41.89500 22.05986 37043 ft 456 kts 139°
2026-05-08 13:03 41.84988 22.11892 37045 ft 455 kts 139°
2026-05-08 13:03 41.80441 22.17830 37045 ft 458 kts 139°
2026-05-08 13:04 41.75874 22.23783 37049 ft 458 kts 139°
2026-05-08 13:04 41.71306 22.29725 37054 ft 458 kts 139°
2026-05-08 13:05 41.66733 22.35661 37053 ft 458 kts 139°
2026-05-08 13:05 41.62154 22.41592 37055 ft 458 kts 139°
2026-05-08 13:06 41.57571 22.47514 37044 ft 458 kts 140°
2026-05-08 13:06 41.53014 22.53393 37076 ft 459 kts 140°
2026-05-08 13:07 41.48414 22.59316 37070 ft 459 kts 140°
2026-05-08 13:07 41.43811 22.65228 37067 ft 459 kts 140°
2026-05-08 13:08 41.39205 22.71134 37072 ft 459 kts 140°
2026-05-08 13:08 41.34591 22.77039 37088 ft 460 kts 140°
2026-05-08 13:09 41.30340 22.83432 37103 ft 463 kts 133°
2026-05-08 13:09 41.26257 22.90067 37093 ft 464 kts 133°
2026-05-08 13:10 41.22179 22.96708 37077 ft 463 kts 133°
2026-05-08 13:10 41.18098 23.03343 37080 ft 464 kts 133°
2026-05-08 13:11 41.14033 23.09936 37086 ft 464 kts 133°
2026-05-08 13:11 41.09940 23.16559 37098 ft 464 kts 133°
2026-05-08 13:12 41.05838 23.23185 37071 ft 463 kts 133°
2026-05-08 13:12 41.01734 23.29799 37086 ft 464 kts 133°
2026-05-08 13:13 40.97660 23.36349 37081 ft 465 kts 134°
2026-05-08 13:13 40.93539 23.42962 37070 ft 466 kts 134°
2026-05-08 13:14 40.89408 23.49577 37085 ft 466 kts 134°
2026-05-08 13:14 40.85270 23.56188 37091 ft 466 kts 134°
2026-05-08 13:15 40.81829 23.61674 37086 ft 466 kts 134°
2026-05-08 13:15 40.77686 23.68268 37090 ft 466 kts 134°
2026-05-08 13:16 40.73546 23.74842 37091 ft 466 kts 134°
2026-05-08 13:16 40.69395 23.81417 37078 ft 468 kts 134°
2026-05-08 13:17 40.65215 23.88028 37101 ft 469 kts 134°
2026-05-08 13:17 40.61059 23.94589 37088 ft 469 kts 135°
2026-05-08 13:18 40.56700 24.00979 37103 ft 467 kts 137°
2026-05-08 13:18 40.52361 24.07273 37076 ft 467 kts 137°
2026-05-08 13:19 40.47993 24.13608 37096 ft 468 kts 137°
2026-05-08 13:19 40.43621 24.19937 37091 ft 468 kts 137°
2026-05-08 13:20 40.39244 24.26260 37092 ft 468 kts 137°
2026-05-08 13:20 40.34859 24.32581 37096 ft 470 kts 137°
2026-05-08 13:21 40.30454 24.38917 37073 ft 470 kts 137°
2026-05-08 13:21 40.26044 24.45249 37098 ft 472 kts 137°
2026-05-08 13:22 40.21613 24.51596 37093 ft 472 kts 137°
2026-05-08 13:22 40.17183 24.57929 37099 ft 472 kts 137°
2026-05-08 13:23 40.12749 24.64255 37092 ft 472 kts 138°
2026-05-08 13:23 40.08313 24.70570 37101 ft 472 kts 138°
2026-05-08 13:24 40.03870 24.76881 37101 ft 472 kts 138°
2026-05-08 13:24 39.99426 24.83183 37097 ft 472 kts 138°
2026-05-08 13:25 39.94984 24.89467 37089 ft 471 kts 138°
2026-05-08 13:25 39.90537 24.95747 37087 ft 471 kts 138°
2026-05-08 13:26 39.86111 25.01983 37071 ft 471 kts 138°
2026-05-08 13:26 39.81647 25.08260 37080 ft 473 kts 138°
2026-05-08 13:27 39.77172 25.14538 37065 ft 474 kts 138°
2026-05-08 13:27 39.72658 25.20860 37078 ft 476 kts 138°
2026-05-08 13:28 39.68148 25.27163 37094 ft 476 kts 138°
2026-05-08 13:28 39.63636 25.33453 37089 ft 476 kts 138°
2026-05-08 13:29 39.59147 25.39702 37112 ft 476 kts 138°
2026-05-08 13:29 39.54626 25.45980 37108 ft 476 kts 138°
2026-05-08 13:30 39.50102 25.52252 37094 ft 476 kts 138°
2026-05-08 13:30 39.45571 25.58518 37106 ft 477 kts 139°
2026-05-08 13:31 39.41044 25.64768 37097 ft 477 kts 138°
2026-05-08 13:31 39.36493 25.71036 37106 ft 478 kts 138°
2026-05-08 13:32 39.31937 25.77300 37106 ft 478 kts 138°
2026-05-08 13:32 39.27375 25.83559 37107 ft 478 kts 139°
2026-05-08 13:33 39.22809 25.89811 37113 ft 478 kts 139°
2026-05-08 13:33 39.18234 25.96061 37075 ft 478 kts 139°
2026-05-08 13:34 39.13685 26.02265 37116 ft 480 kts 138°
2026-05-08 13:34 39.09098 26.08507 37114 ft 479 kts 138°
2026-05-08 13:35 39.04510 26.14737 37115 ft 479 kts 139°
2026-05-08 13:35 38.99923 26.20957 37113 ft 479 kts 139°
2026-05-08 13:36 38.95329 26.27173 37104 ft 479 kts 139°
2026-05-08 13:36 38.90726 26.33391 37123 ft 480 kts 139°
2026-05-08 13:37 38.86156 26.39579 37113 ft 482 kts 136°
2026-05-08 13:37 38.84210 26.43116 37110 ft 489 kts 120°
2026-05-08 13:37 38.82989 26.47205 37127 ft 495 kts 105°
2026-05-08 13:38 38.81886 26.55959 37117 ft 499 kts 101°
2026-05-08 13:38 38.80776 26.64742 37127 ft 500 kts 101°
2026-05-08 13:39 38.79660 26.73546 37135 ft 500 kts 101°
2026-05-08 13:39 38.78539 26.82338 37120 ft 499 kts 101°
2026-05-08 13:40 38.77983 26.86680 36943 ft 490 kts 101°
2026-05-08 13:40 38.77440 26.90904 36627 ft 482 kts 101°
2026-05-08 13:40 38.76687 26.95049 36306 ft 473 kts 115°
2026-05-08 13:40 38.75190 26.98734 35999 ft 461 kts 130°
2026-05-08 13:41 38.73347 27.02094 35754 ft 461 kts 130°
2026-05-08 13:41 38.71469 27.05426 35492 ft 459 kts 132°
2026-05-08 13:41 38.69577 27.08712 35195 ft 458 kts 132°
2026-05-08 13:41 38.67677 27.11971 34926 ft 456 kts 133°
2026-05-08 13:42 38.65774 27.15209 34645 ft 454 kts 133°
2026-05-08 13:42 38.63874 27.18432 34385 ft 453 kts 133°
2026-05-08 13:42 38.61996 27.21612 34130 ft 453 kts 133°
2026-05-08 13:42 38.60099 27.24825 33837 ft 452 kts 133°
2026-05-08 13:43 38.58204 27.28029 33537 ft 450 kts 134°
2026-05-08 13:43 38.56316 27.31217 33238 ft 449 kts 134°
2026-05-08 13:43 38.54437 27.34389 32958 ft 447 kts 134°
2026-05-08 13:43 38.52559 27.37553 32667 ft 444 kts 134°
2026-05-08 13:44 38.50697 27.40690 32378 ft 442 kts 134°
2026-05-08 13:44 38.48843 27.43811 32100 ft 440 kts 134°
2026-05-08 13:44 38.46992 27.46923 31824 ft 438 kts 134°
2026-05-08 13:44 38.45150 27.50020 31539 ft 438 kts 134°
2026-05-08 13:45 38.43305 27.53114 31257 ft 437 kts 134°
2026-05-08 13:45 38.41491 27.56156 30989 ft 436 kts 134°
2026-05-08 13:45 38.39658 27.59228 30729 ft 434 kts 134°
2026-05-08 13:45 38.37831 27.62287 30517 ft 432 kts 134°
2026-05-08 13:46 38.36011 27.65327 30252 ft 430 kts 133°
2026-05-08 13:46 38.34201 27.68352 29912 ft 428 kts 133°
2026-05-08 13:46 38.32401 27.71358 29566 ft 425 kts 133°
2026-05-08 13:46 38.30609 27.74345 29287 ft 423 kts 133°
2026-05-08 13:47 38.28822 27.77323 28959 ft 420 kts 133°
2026-05-08 13:47 38.27030 27.80247 28688 ft 416 kts 137°
2026-05-08 13:47 38.24894 27.82584 28351 ft 398 kts 154°
2026-05-08 13:47 38.22614 27.84593 28097 ft 399 kts 151°
2026-05-08 13:48 38.20365 27.86651 27813 ft 398 kts 151°
2026-05-08 13:48 38.18114 27.88689 27536 ft 396 kts 151°
2026-05-08 13:48 38.15898 27.90681 27266 ft 394 kts 151°
2026-05-08 13:48 38.13662 27.92687 26995 ft 393 kts 151°
2026-05-08 13:49 38.11432 27.94685 26733 ft 391 kts 151°
2026-05-08 13:49 38.09209 27.96673 26464 ft 389 kts 150°
2026-05-08 13:49 38.06997 27.98652 26207 ft 387 kts 150°
2026-05-08 13:49 38.04796 28.00617 25928 ft 386 kts 150°
2026-05-08 13:50 38.02602 28.02575 25668 ft 385 kts 150°
2026-05-08 13:50 38.00415 28.04526 25411 ft 384 kts 149°
2026-05-08 13:50 37.98237 28.06467 25135 ft 382 kts 150°
2026-05-08 13:50 37.96067 28.08401 24887 ft 381 kts 149°
2026-05-08 13:51 37.93900 28.10329 24646 ft 380 kts 149°
2026-05-08 13:51 37.91740 28.12249 24385 ft 379 kts 149°
2026-05-08 13:51 37.89587 28.14162 24147 ft 377 kts 149°
2026-05-08 13:51 37.87447 28.16064 23909 ft 375 kts 149°
2026-05-08 13:52 37.85313 28.17957 23656 ft 374 kts 149°
2026-05-08 13:52 37.83190 28.19838 23367 ft 372 kts 149°
2026-05-08 13:52 37.81074 28.21713 23083 ft 370 kts 149°
2026-05-08 13:52 37.78994 28.23554 22810 ft 368 kts 149°
2026-05-08 13:53 37.76900 28.25407 22503 ft 367 kts 150°
2026-05-08 13:53 37.74804 28.27262 22215 ft 367 kts 149°
2026-05-08 13:53 37.72715 28.29109 21933 ft 366 kts 149°
2026-05-08 13:53 37.70634 28.30945 21663 ft 364 kts 149°
2026-05-08 13:54 37.68625 28.32717 21410 ft 362 kts 149°
2026-05-08 13:54 37.66568 28.34531 21141 ft 360 kts 150°
2026-05-08 13:54 37.64522 28.36333 20878 ft 358 kts 150°
2026-05-08 13:54 37.62487 28.38127 20614 ft 355 kts 149°
2026-05-08 13:55 37.60464 28.39905 20352 ft 352 kts 150°
2026-05-08 13:55 37.58491 28.41641 20097 ft 349 kts 150°
2026-05-08 13:55 37.54529 28.45122 19596 ft 345 kts 150°
2026-05-08 13:56 37.52565 28.46846 19345 ft 343 kts 150°
2026-05-08 13:56 37.50609 28.48563 19089 ft 341 kts 150°
2026-05-08 13:56 37.48576 28.50038 18795 ft 333 kts 168°
2026-05-08 13:56 37.46355 28.50514 18599 ft 322 kts 180°
2026-05-08 13:57 37.44137 28.51139 18279 ft 331 kts 166°
2026-05-08 13:57 37.41950 28.52011 18007 ft 328 kts 170°
2026-05-08 13:57 37.39755 28.52780 17736 ft 327 kts 170°
2026-05-08 13:57 37.37566 28.53508 17474 ft 324 kts 171°
2026-05-08 13:58 37.35390 28.54213 17218 ft 322 kts 171°
2026-05-08 13:58 37.33225 28.54901 16949 ft 319 kts 171°
2026-05-08 13:58 37.31074 28.55577 16692 ft 316 kts 171°
2026-05-08 13:58 37.28945 28.56243 16439 ft 314 kts 171°
2026-05-08 13:59 37.26826 28.56903 16191 ft 312 kts 171°
2026-05-08 13:59 37.24746 28.57549 16107 ft 312 kts 171°
2026-05-08 13:59 37.22625 28.58207 16013 ft 315 kts 171°
2026-05-08 13:59 37.20503 28.58867 15761 ft 312 kts 171°
2026-05-08 14:00 37.18400 28.59519 15514 ft 310 kts 171°
2026-05-08 14:00 37.16312 28.60190 15181 ft 312 kts 166°
2026-05-08 14:00 37.14392 28.61499 14865 ft 318 kts 142°
2026-05-08 14:00 37.12994 28.63657 14548 ft 323 kts 119°
2026-05-08 14:01 37.12477 28.65405 14356 ft 325 kts 103°
2026-05-08 14:01 37.12390 28.68230 14064 ft 326 kts 82°
2026-05-08 14:01 37.12884 28.71885 13597 ft 319 kts 81°
2026-05-08 14:01 37.13260 28.74640 13241 ft 321 kts 81°
2026-05-08 14:02 37.13643 28.77404 12936 ft 320 kts 81°
2026-05-08 14:02 37.13896 28.79220 12725 ft 319 kts 80°
2026-05-08 14:02 37.14277 28.81954 12343 ft 316 kts 80°
2026-05-08 14:02 37.14655 28.84658 12038 ft 314 kts 80°
2026-05-08 14:03 37.15031 28.87354 11745 ft 313 kts 80°
2026-05-08 14:03 37.15405 28.90040 11431 ft 311 kts 80°
2026-05-08 14:03 37.15738 28.92708 11114 ft 309 kts 87°
2026-05-08 14:03 37.15407 28.95322 10760 ft 304 kts 115°
2026-05-08 14:04 37.14232 28.97462 10383 ft 298 kts 137°
2026-05-08 14:04 37.12695 28.99212 9877 ft 299 kts 139°
2026-05-08 14:04 37.11157 29.00954 9400 ft 296 kts 139°
2026-05-08 14:04 37.09659 29.02636 8977 ft 293 kts 138°
2026-05-08 14:05 37.08132 29.04337 8403 ft 293 kts 142°
2026-05-08 14:05 37.06320 29.05369 7857 ft 286 kts 174°
2026-05-08 14:05 37.04379 29.05118 7268 ft 281 kts 203°
2026-05-08 14:05 37.02727 29.03902 6688 ft 279 kts 219°
2026-05-08 14:06 37.01313 29.02254 6224 ft 277 kts 227°
2026-05-08 14:06 36.99980 29.00516 5872 ft 276 kts 227°
2026-05-08 14:06 36.98658 28.98779 5565 ft 274 kts 227°
2026-05-08 14:06 36.97350 28.97045 5261 ft 273 kts 227°
2026-05-08 14:07 36.96054 28.95337 5071 ft 267 kts 228°
2026-05-08 14:07 36.94818 28.93689 5051 ft 254 kts 227°
2026-05-08 14:07 36.93635 28.92124 5049 ft 242 kts 227°
2026-05-08 14:07 36.92490 28.90603 5017 ft 239 kts 227°
2026-05-08 14:08 36.91347 28.89090 5010 ft 239 kts 227°
2026-05-08 14:08 36.90206 28.87574 4998 ft 239 kts 227°
2026-05-08 14:08 36.89064 28.86048 4963 ft 240 kts 227°
2026-05-08 14:08 36.87863 28.84619 4847 ft 237 kts 212°
2026-05-08 14:09 36.86405 28.83884 4856 ft 223 kts 196°
2026-05-08 14:09 36.84957 28.83393 4822 ft 208 kts 195°
2026-05-08 14:09 36.83546 28.83000 4452 ft 209 kts 193°
2026-05-08 14:09 36.82129 28.82617 3996 ft 209 kts 193°
2026-05-08 14:10 36.80690 28.82266 3440 ft 211 kts 193°
2026-05-08 14:10 36.79246 28.81867 2622 ft 214 kts 194°
2026-05-08 14:10 36.77799 28.81426 1907 ft 214 kts 196°
2026-05-08 14:10 36.76359 28.80990 1311 ft 209 kts 197°
2026-05-08 14:11 36.75008 28.80497 877 ft 195 kts 198°
2026-05-08 14:11 36.73768 28.80094 557 ft 178 kts 195°
2026-05-08 14:11 36.72626 28.79732 731 ft 162 kts 191°
2026-05-08 14:11 36.71535 28.79429 1471 ft 163 kts 205°
2026-05-08 14:12 36.70694 28.78525 2240 ft 167 kts 246°
2026-05-08 14:12 36.70162 28.77203 2830 ft 179 kts 247°
2026-05-08 14:12 36.70016 28.75667 2852 ft 183 kts 285°
2026-05-08 14:12 36.70613 28.74280 3013 ft 184 kts 306°
2026-05-08 14:13 36.71379 28.72983 3282 ft 187 kts 307°
2026-05-08 14:13 36.72309 28.71877 3356 ft 185 kts 335°
2026-05-08 14:13 36.73556 28.71721 3488 ft 184 kts 12°
2026-05-08 14:13 36.74797 28.72168 3661 ft 187 kts 15°
2026-05-08 14:14 36.76022 28.72635 3802 ft 187 kts 15°
2026-05-08 14:14 36.77272 28.73100 3940 ft 188 kts 15°
2026-05-08 14:14 36.78532 28.73565 3970 ft 189 kts 15°
2026-05-08 14:14 36.79791 28.74033 4002 ft 188 kts 15°
2026-05-08 14:15 36.81052 28.74495 4022 ft 190 kts 15°
2026-05-08 14:15 36.82342 28.74959 3993 ft 194 kts 15°
2026-05-08 14:15 36.83665 28.75267 3975 ft 194 kts
2026-05-08 14:15 36.85004 28.75483 3968 ft 194 kts 12°
2026-05-08 14:16 36.86117 28.76377 3873 ft 194 kts 50°
2026-05-08 14:16 36.86760 28.77861 3705 ft 196 kts 72°
2026-05-08 14:16 36.87168 28.79483 3499 ft 194 kts 73°
2026-05-08 14:16 36.87204 28.81115 3215 ft 187 kts 106°
2026-05-08 14:17 36.86604 28.82503 2943 ft 179 kts 136°
2026-05-08 14:17 36.85554 28.83179 2751 ft 165 kts 173°
2026-05-08 14:17 36.84459 28.83257 2735 ft 154 kts 176°
2026-05-08 14:17 36.83386 28.83233 2833 ft 155 kts 185°
2026-05-08 14:18 36.82306 28.83120 2778 ft 157 kts 194°
2026-05-08 14:18 36.81300 28.82684 2681 ft 155 kts 198°
2026-05-08 14:18 36.80264 28.82304 2488 ft 153 kts 195°
2026-05-08 14:18 36.79238 28.81948 2180 ft 153 kts 195°
2026-05-08 14:19 36.78218 28.81603 1788 ft 151 kts 195°
2026-05-08 14:19 36.77222 28.81263 1409 ft 147 kts 198°
2026-05-08 14:19 36.76250 28.80929 1043 ft 143 kts 197°
2026-05-08 14:19 36.75318 28.80585 723 ft 139 kts 197°
2026-05-08 14:20 36.74400 28.80255 448 ft 133 kts 198°
2026-05-08 14:20 36.73508 28.79994 205 ft 132 kts 194°
2026-05-08 14:20 36.72624 28.79707 70 ft 132 kts 195°
2026-05-08 14:20 36.71874 28.79448 15 ft 50 kts 196°
2026-05-08 14:21 36.71803 28.79423 15 ft 0 kts 191°
2026-05-08 14:21 36.71745 28.79400 15 ft 16 kts 197°
2026-05-08 14:21 36.71622 28.79356 15 ft 20 kts 195°
2026-05-08 14:22 36.71483 28.79309 15 ft 22 kts 197°
2026-05-08 14:22 36.71331 28.79259 15 ft 23 kts 195°
2026-05-08 14:22 36.71169 28.79204 15 ft 25 kts 195°
2026-05-08 14:22 36.70999 28.79146 15 ft 26 kts 195°
2026-05-08 14:23 36.70825 28.79088 15 ft 24 kts 194°
2026-05-08 14:23 36.70677 28.78991 15 ft 25 kts 216°
2026-05-08 14:23 36.70570 28.78869 17 ft 15 kts 236°
2026-05-08 14:23 36.70600 28.78773 15 ft 15 kts
2026-05-08 14:24 36.70703 28.78829 15 ft 18 kts 18°
2026-05-08 14:24 36.70830 28.78871 15 ft 20 kts 14°
2026-05-08 14:24 36.70977 28.78921 15 ft 23 kts 14°
2026-05-08 14:24 36.71130 28.78974 15 ft 15 kts 16°
2026-05-08 14:25 36.71238 28.79009 15 ft 16 kts 14°
2026-05-08 14:25 36.71353 28.79049 15 ft 19 kts 17°
2026-05-08 14:25 36.71488 28.79095 15 ft 21 kts 15°
2026-05-08 14:25 36.71640 28.79147 15 ft 23 kts 15°
2026-05-08 14:26 36.71755 28.79186 15 ft 18 kts 14°
2026-05-08 14:26 36.71855 28.79201 17 ft 15 kts 329°
2026-05-08 14:26 36.71887 28.79094 15 ft 3 kts 282°
2026-05-08 14:26 36.71893 28.79056 15 ft 6 kts 283°
2026-05-08 14:27 36.71929 28.79021 15 ft 8 kts
2026-05-08 14:27 36.71993 28.79044 15 ft 11 kts 19°
2026-05-08 14:27 36.72077 28.79075 15 ft 14 kts 14°
2026-05-08 14:27 36.72158 28.79096 14 ft 10 kts 345°
2026-05-08 14:28 36.72176 28.79065 14 ft 2 kts 291°
2026-05-08 14:28 36.72183 28.79043 14 ft 0 kts 283°
2026-05-08 14:28 36.72185 28.79034 14 ft 0 kts 284°